Regional Weather Roundup
Issued by NWS San Angelo, TX

Home | Current Version | Previous Version | Text Only | Print | Product List | Glossary On
Versions: 1 2 3 4 5 6 7 8 9 10 11 12 13 14 15 16 17 18 19 20 21 22 23 24 25 26 27 28 29 30 31 32 33 34 35 36 37 38 39 40 41 42 43 44 45 46 47 48 49 50
000
ASUS44 KSJT 250610
RWRSJT
WEST CENTRAL TEXAS REGIONAL WEATHER ROUNDUP
NATIONAL WEATHER SERVICE SAN ANGELO TX
100 AM CDT SAT MAR 25 2017

NOTE: "FAIR" INDICATES FEW OR NO CLOUDS BELOW 12,000 FEET WITH NO
SIGNIFICANT WEATHER AND/OR OBSTRUCTIONS TO VISIBILITY.

TXZ049-054-064>066-071>073-076>078-098-099-113-114-127-128-139-140-
154-155-168>170-250700
...LOCATIONS ACROSS WEST CENTRAL TEXAS...

CITY           SKY/WX    TMP DP  RH WIND       PRES   REMARKS
SAN ANGELO     CLEAR     60  33  36 NW12      30.06S
ABILENE        CLEAR     54  38  54 NW14      30.04R
DYESS AFB      CLEAR     55  38  54 NW12      30.03R
JUNCTION       CLEAR     56  37  49 SW3       30.03R
SWEETWATER     CLEAR     53  37  54 NW13G23   30.09S
BROWNWOOD      CLEAR     59  37  44 NW18      30.01S
COLEMAN        CLEAR     58  37  45 NW14G20   30.04R
SONORA         CLEAR     61  32  33 N7        30.09S
OZONA            N/A     54  32  43 MISG      30.11R
BRADY          NOT AVBL
$$

TEXAS PANHANDLE/OKLAHOMA PANHANDLE

CITY           SKY/WX    TMP DP  RH WIND       PRES   REMARKS
AMARILLO       PTCLDY    40  36  86 NW14      30.08S WCI  32
BORGER         CLOUDY    46  37  71 NW13G23   30.08R
CANADIAN       CLOUDY    46  40  80 N24G35    30.01S WCI  38
DALHART        CLEAR     41  35  79 NW16      30.13R WCI  33
DUMAS          PTCLDY    39  35  83 NW16G23   30.10S WCI  31
GUYMON         NOT AVBL
HEREFORD       PTCLDY    43  36  76 NW12      30.12R WCI  36
PAMPA          CLOUDY    44  38  78 N25G31    30.05S WCI  34
PERRYTON       CLOUDY    45  40  85 N15       30.02R WCI  38
$$

SOUTHERN PANHANDLE/SOUTH PLAINS/ROLLING PLAINS

CITY           SKY/WX    TMP DP  RH WIND       PRES   REMARKS
LUBBOCK        CLEAR     45  36  70 NW13      30.08R WCI  39
SNYDER         CLEAR     49  36  59 NW6       30.08F
CHILDRESS      MOCLDY    50  38  63 NW16      30.02R
SEMINOLE       CLEAR     49  32  52 N12       30.15R
$$

PERMIAN BASIN

CITY           SKY/WX    TMP DP  RH WIND       PRES   REMARKS
MIDLAND        PTCLDY    54  32  43 N12       30.12R
ODESSA         CLEAR     54  30  40 N10       30.13R
WINK           CLEAR     56  31  38 N14       30.13R
$$

FAR WEST/SOUTHWEST MOUNTAINS/TRANS PECOS

CITY           SKY/WX    TMP DP  RH WIND       PRES   REMARKS
ALPINE         CLEAR     52  18  26 CALM      30.20F
DRYDEN           N/A     66  27  23 NE8       30.06R
EL PASO        CLEAR     67  22  18 W18G33    30.11F
FORT STOCKTON  CLEAR     57  29  34 NE8       30.15R
GUADALUPE PASS   N/A    N/A N/A N/A MISG        N/A
MARFA          CLEAR     46  18  32 NW8       30.19S
PECOS          CLEAR     58  30  35 N5        30.16R
$$

DALLAS/FORT WORTH METROPLEX

CITY           SKY/WX    TMP DP  RH WIND       PRES   REMARKS
DFW AIRPORT    CLEAR     66  42  41 W17       29.86R
FTW MEACHAM    CLEAR     64  41  42 W17G23    29.90R
DAL-EXECUTIVE  CLEAR     66  42  41 W22G33    29.86R
GRAND PRAIRIE  CLEAR     66  39  36 W16G32    29.90R
ADDISON        CLEAR     64  42  44 W10G23    29.89S
MESQUITE       CLEAR     65  41  41 W17       29.86S
LANCASTER      CLEAR     65  42  44 W15G23    29.88R
$$

NORTH CENTRAL TEXAS

CITY           SKY/WX    TMP DP  RH WIND       PRES   REMARKS
SHRMAN/DENISON CLEAR     60  44  55 W13       29.83F
GAINESVILLE    CLEAR     60  44  55 W17G24    29.88R
BRIDGEPORT     CLEAR     60  44  55 W16G29    29.93R
DENTON         CLEAR     60  44  55 W12       29.87S
WAXAHACHIE     CLEAR     65  42  43 W14G20    29.89R
GRANBURY       CLEAR     64  41  43 W10G21    29.95R
$$

WESTERN NORTH TEXAS

CITY           SKY/WX    TMP DP  RH WIND       PRES   REMARKS
WICHITA FALLS  MOCLDY    54  43  66 NW18G28   29.92R
VERNON         MOCLDY    55  39  55 NW20      29.98R
BRECKENRIDGE   CLEAR     59  40  49 NW20G26   29.99R
COMANCHE       CLEAR     60  40  47 NW12      30.00R
$$

CENTRAL AND SOUTH CENTRAL TEXAS

CITY           SKY/WX    TMP DP  RH WIND       PRES   REMARKS
AUSTIN/BERGSTM CLEAR     64  60  87 SW7       29.94F
WACO           CLEAR     62  42  47 W12       29.90R
HILLSBORO      CLEAR     60  46  59 NW9       29.91R
TEMPLE         CLEAR     60  49  66 W8        29.93R
KILLEEN-GRAY   PTCLDY    68  36  31 NW13      29.93S
FORT HOOD      CLEAR     65  39  38 NW10      29.91R
GEORGETOWN     CLEAR     59  43  55 N5        29.94R
LAGO VISTA     FAIR      68  30  24 W7        29.97S
SAN MARCOS     PTCLDY    59  52  77 CALM      29.97F
NEW BRAUNFELS  CLEAR     59  50  72 W6        29.96S
RANDOLPH AFB   PTCLDY    56  48  73 NW7       29.98R
SAN ANTONIO    PTCLDY    59  41  51 NW6       29.98S
STINSON        PTCLDY    59  51  75 CALM      29.96R
PLEASANTON     NOT AVBL
LA GRANGE      CLEAR     69  67  94 SW7       29.93S
GIDDINGS       CLEAR     66  64  93 SW6       29.95F
$$

EAST TEXAS

CITY           SKY/WX    TMP DP  RH WIND       PRES   REMARKS
PARIS          CLEAR     64  59  82 W13       29.81S
CLARKSVILLE    NOT AVBL
TYLER          MOCLDY    67  65  93 SW14G24   29.85R
LONGVIEW       PTCLDY    67  63  87 S14       29.83F
PALESTINE      CLEAR     65  64  97 S8        29.87F
NACOGDOCHES    PTCLDY    61  54  77 S5        29.89R
$$

TEXAS HILL COUNTRY AND EDWARDS PLATEAU

CITY           SKY/WX    TMP DP  RH WIND       PRES   REMARKS
LLANO          CLEAR     57  41  54 W6        30.01S
HORSESHOE BAY  FAIR      63  35  34 SW5       29.98R
KERRVILLE      PTCLDY    51  43  76 NW3       30.01S
FREDERICKSBRG  CLEAR     53  39  59 SW3       30.01R
ROCKSPRINGS    CLEAR     63  34  34 N6        30.07R
HONDO          PTCLDY    54  39  57 N7        29.99S
UVALDE         PTCLDY    56  41  57 CALM      30.00S
DEL RIO        CLEAR     60  38  43 S3        29.98S
$$

SOUTHEAST TEXAS

CITY           SKY/WX    TMP DP  RH WIND       PRES   REMARKS
COLLEGE STN    CLEAR     69  66  90 S12       29.92S
CALDWELL       NOT AVBL
CROCKETT       CLEAR     64  63  94 S9        29.92F
BRENHAM        MOCLDY    72  69  91 SW13G20   29.94S
HUNTSVILLE     CLEAR     68  63  84 S12G22    29.92S
CONROE         CLEAR     66  64  93 S6        29.94S
HOUSTON BUSH   MOCLDY    69  59  70 SW6       29.95F THUNDER
HOUSTON HOBBY  MOCLDY    70  60  70 SW16G30   29.97S THUNDER
PERLAND          N/A     74  69  85 MISG      29.99R THUNDER
WHARTON        MOCLDY    73  68  86 S15G21    29.98S
$$

THE UPPER TEXAS COAST

CITY           SKY/WX    TMP DP  RH WIND       PRES   REMARKS
ORANGE         CLOUDY    73  69  88 S13G22    30.00S
PORT ARTHUR    CLOUDY    73  68  84 S17G25    29.97S
GALVESTON      PTCLDY    74  70  87 S18G35    29.98S
ANGLETON       CLOUDY    74  70  87 S15G24    29.97S
BAY CITY       CLOUDY    73  71  93 S12       29.98S FOG
$$

TEXAS COASTAL BEND, RIO GRANDE PLAINS DEEP SOUTH TEXAS

CITY           SKY/WX    TMP DP  RH WIND       PRES   REMARKS
VICTORIA       CLOUDY    73  69  87 S14       29.97S
BEEVILLE       FAIR     N/A N/A N/A S7        29.98S
ROCKPORT       CLOUDY    72  69  90 S7        29.98R FOG
PORT ARANSAS   CLOUDY    70  69  97 S10       29.98S FOG
PORT LAVACA    CLOUDY    73  72  96 S15       29.98S FOG
CORPUS CHRISTI PTCLDY    72  70  93 S9        29.97F
KINGSVILLE NAS MOCLDY    71  70  96 S8        29.97S
COTULLA        PTCLDY    71  59  65 S7        29.96S
LAREDO         CLEAR     73  66  78 E6        29.97S
BROWNSVILLE    CLOUDY    73  70  90 S10       29.98F
PORT ISABEL    CLEAR     74  71  91 S10       29.97F
HEBBRONVILLE   CLEAR     67  63  86 S5        29.99S
MCALLEN        CLOUDY    75  70  84 SE12      29.97S
WESLACO        CLOUDY    73  70  91 S8        29.97S
FALFURRIAS     CLEAR     69  65  86 CALM      29.97S
EDINBURG       PTCLDY    74  70  85 S10       29.97F
$$




USA.gov is the U.S. government's official web portal to all federal, state and local government web resources and services.